Flag for Greece Weather past 2 weeks in Kalamaria, Greece

Now
66 °F

Clear.


Feels Like: 66 °F
Forecast: 63 / 93 °F
Wind: 5 mph from East

Location: Thessaloniki Airport

Current Time: Aug 29, 2015 at 4:14:27 AM

Latest Report: Aug 29, 2015 at 3:20 AM


Visibility: 10 mi

Pressure: 30.12 "Hg

Humidity: 68%

Dew point: 55 °F

Location of KalamariaLocation

Historic Weather in Kalamaria — Graph

°F

Kalamaria temperature yesterday

Maximum temperature yesterday: 90 °F (at 3:20 PM)
Minimum temperature yesterday: 63 °F (at 6:50 AM)
Average temperature yesterday: 77 °F

Past Weeks' High & Low Weather Summary

 TemperatureHumidityPressure
High95 °F (Aug 15, 4:50 PM)94% (Aug 21, 5:50 AM)30.12 "Hg (Aug 21, 5:50 AM)
Low63 °F (Aug 23, 4:20 AM)21% (Aug 26, 4:20 PM)29.71 "Hg (Aug 16, 6:20 PM)
Average79 °F56%29.92 "Hg
* Reported Aug 14 2:20 AM — Aug 29 2:50 AM, Kalamaria, Weather by CustomWeather, © 2015

Note: Actual official high and low records may vary slightly from our data, if they occured in-between our weather recording intervals... More about our weather records

Advertising

Kalamaria weather history for previous 24 hours

 ConditionsComfort  
Time TempWeatherWind HumidityBarometerVisibility
2:50 AM
Sat, Aug 29
68 °FClear.3 mph64%30.12 "Hg10 mi
2:20 AM70 °FClear.5 mph60%30.12 "Hg10 mi
1:50 AM70 °FClear.5 mph60%30.12 "Hg10 mi
1:20 AM68 °FClear.5 mph69%30.12 "Hg10 mi
12:50 AM70 °FClear.5 mph64%30.12 "Hg10 mi
11:50 PM
Fri, Aug 28
72 °FClear.5 mph61%30.12 "Hg10 mi
11:20 PM72 °FClear.6 mph65%30.12 "Hg10 mi
10:50 PM72 °FClear.6 mph65%30.09 "Hg10 mi
10:20 PM75 °FClear.6 mph57%30.09 "Hg10 mi
9:50 PM77 °FClear.6 mph57%30.09 "Hg10 mi
9:20 PM77 °FClear.5 mph54%30.09 "Hg10 mi
8:50 PM79 °FSunny.3 mph48%30.09 "Hg10 mi
8:20 PM82 °FSunny.8 mph42%30.07 "Hg10 mi
7:50 PM84 °FSunny.7 mph35%30.07 "Hg10 mi
7:20 PM86 °FSunny.8 mph31%30.07 "Hg10 mi
6:50 PM88 °FSunny.9 mph27%30.07 "Hg10 mi
6:20 PM88 °FSunny.9 mph25%30.07 "Hg10 mi
5:50 PM90 °FSunny.9 mph24%30.07 "Hg10 mi
5:20 PM90 °FSunny.10 mph27%30.07 "Hg10 mi
4:50 PM90 °FSunny.12 mph29%30.07 "Hg10 mi
4:20 PM90 °FSunny.8 mph33%30.07 "Hg10 mi
3:50 PM90 °FSunny.8 mph27%30.07 "Hg10 mi
3:20 PM90 °FSunny.8 mph29%30.07 "Hg10 mi
2:50 PM88 °FSunny.9 mph35%30.09 "Hg10 mi
2:20 PM88 °FSunny.9 mph35%30.09 "Hg10 mi
1:50 PM86 °FSunny.8 mph38%30.09 "Hg10 mi
1:20 PM84 °FSunny.8 mph48%30.09 "Hg10 mi
12:50 PM84 °FSunny.7 mph48%30.12 "Hg10 mi
12:20 PM82 °FSunny.7 mph51%30.12 "Hg10 mi
11:50 AM81 °FSunny.7 mph54%30.12 "Hg10 mi
11:20 AM79 °FSunny.6 mph58%30.12 "Hg10 mi
10:50 AM77 °FSunny.5 mph61%30.12 "Hg10 mi
10:20 AM77 °FSunny.5 mph61%30.12 "Hg10 mi
9:50 AM77 °FSunny.5 mph57%30.12 "Hg10 mi
9:20 AM77 °FSunny.3 mph42%30.12 "Hg10 mi
8:50 AM73 °FSunny.2 mph47%30.12 "Hg10 mi
8:20 AM70 °FSunny.3 mph50%30.12 "Hg10 mi
7:50 AM66 °FSunny.5 mph60%30.12 "Hg10 mi
6:50 AM63 °FClear.6 mph64%30.09 "Hg10 mi
5:50 AM64 °FClear.6 mph60%30.09 "Hg10 mi
5:20 AM64 °FClear.6 mph60%30.09 "Hg10 mi
4:50 AM64 °FClear.6 mph64%30.09 "Hg10 mi
4:20 AM64 °FClear.7 mph60%30.09 "Hg10 mi
Weather by CustomWeather, © 2015

See weather overviewHow to use our weather pages